FENGYUN 1C DEB, 31664

Orbit data source: Space-Track

FENGYUN 1C DEB, 31664 is space debris in SSO originally from a launch on Mon, 10 May 1999 UTC launched from the Taiyaun Space Center, China (TSC). Fengyun 1C debris stems from the Chinese weather satellite Fengyun-1C, which was intentionally destroyed by a Chinese anti-satellite missile in 2007. This event dramatically increased the amount of space debris, with thousands of trackable fragments posing hazards to satellites and human spaceflight. The Fengyun 1C debris cloud has become a focal point in discussions about space sustainability and the need for international regulations to prevent the creation of new debris.

Loading next visibility...
Identifier
31664, 1999-025CBW
Orbit
SSO
Country
Flag of CNCN / PRC
Related business
Manufacturer
Unknown
Mission
Spacecraft
Bus & Motor
Unknown
Mass
Unknown
Launch date (UTC)
1999-05-10 (27 years ago)
Launch vehicle
Unknown
Launch site
Taiyaun Space Center, China (TSC)
Object type
Payload
Rocket body
Debris
Shape & HBR
Unknown shape, 0.1 m
Radar Cross Section
Small (<0.1 m²)

Expand to show TLE details & history
Last TLE update: 5 days ago

TLE from 5 days ago
0 FENGYUN 1C DEB
1 31664U 99025CBW 26161.70830793  .00000590  00000-0  33058-3 0  9994
2 31664  98.7634 153.6644 0124569   9.3457 350.9991 14.10573202985387
Epoch: 2026-06-10T16:59Z
TLE epoch observation values (Epoch: 2026-06-10T16:59:57.805Z)
Latitude
0.00001°
Longitude
-0.38904°
Altitude
771.299 km
Speed
7.514 km/s
True Right ascension
10h 14m 39s
True Declination
0° 00' 00"
Sunlit
Object was in daylight at epoch
Visualization orbit readout
Latitude
Unknown
Longitude
Unknown
Altitude
Unknown
Speed
Unknown
Apparent Right ascension
Unknown
Apparent Declination
Unknown
Sunlit
N/A
Visualization observer readout
Local Sidereal Time
03:01:58
Azimuth
Unknown
Elevation
Unknown
Doppler factor
Unknown
Orbital elements
Apogee altitude
944.681 km
Perigee altitude
764.487 km
Semi-major axis
7,232.721 km
Eccentricity
0.01246
Inclination
98.7634°
RAAN
153.6644°
Arg. of periapsis
9.3457°
True anomaly
350.77229°
Mean anomaly
350.9991°
Eccentric anomaly
350.88605°
Mean motion
3.5285 °/min
Orbital period
102.03 mins
BSTAR
0.00033058
Loading maneuver chart data...
Computing Atmospheric mass density...
Loading historical data...
Loading historical data...
Loading historical data...
Loading historical data...
Loading historical data...
Loading historical data...
Loading historical data...

Documentation

Showing up to 5 results
|